Content
SEND FEEDBACK

Daily
Averages
Monthly
Summary
United States of America

ASHEVILLE, NORTH CAROLINA


Home > North America > United States > North Carolina
Elevation: 2240 feet     Latitude: 35 36N     Longitude: 082 32W

WEATHER
 
SELECT A DAY
Number of Records: 230,425;   Date Range: 1/1/95 - 11/26/14
 
SHARE

PRINT THIS DATA

[ ← Previous Day ]
WEATHER ALMANAC - MARCH 16, 2013
[ Next Day → ]
[ °C ]   °F
Weather ElementAverageHighLow
Temperature65.2 °F77 °F (4:54 pm)48 °F (2:54 am)
Dewpoint39.4 °F42.1 °F (11:54 am)37 °F (7:54 am)
Humidity40.4 %68 % (2:54 am)24 % (4:54 pm)
Barometer29.82 in29.87 in (1:54 am)29.73 in (4:54 pm)
Wind Speed8.4 mph16.1 mph (5:54 pm)
Wind Gust31.1 mph (3:54 pm)
Weather ElementAverage
Visibility10 mi
Wind DirectionWSW (236.1 °)

Weather ElementTotal
Precipitation---
Heating Degree Days2.5 (Base 65)
Growing Degree Days12.5 (Base 50)
Averaged from 23 records on March 16, 2013
WEATHER CONDITIONS BREAKOUT
WIND DIRECTION BREAKOUT
WEATHER BY HOUR - MARCH 16, 2013
[ °C ]   °F
Local TimeTemperatureDewpointHumidityBarometerVisibilityWind DirectionWind SpeedGust SpeedPrecipitationEventsConditions
1:54 AM50.0 °F37.9 °F63 %29.87 in10.0 miCalmClear
2:54 AM48.0 °F37.9 °F68 %29.87 in10.0 miCalmClear
3:54 AM52.0 °F39.0 °F61 %29.86 in10.0 miCalmClear
4:54 AM54.0 °F39.0 °F57 %29.84 in10.0 miCalmClear
5:54 AM59.0 °F37.9 °F46 %29.83 in10.0 miNW (310°)11.5 mph17.3 mphClear
6:54 AM60.1 °F37.9 °F44 %29.84 in10.0 miNW (310°)10.4 mph17.3 mphClear
7:54 AM61.0 °F37.0 °F41 %29.84 in10.0 miNW (310°)12.7 mph24.2 mphClear
8:54 AM63.0 °F37.9 °F40 %29.83 in10.0 miWest (280°)9.2 mph17.3 mphClear
9:54 AM64.0 °F39.9 °F41 %29.84 in10.0 miWNW (290°)12.7 mph19.6 mphClear
10:54 AM66.0 °F41.0 °F40 %29.84 in10.0 miWNW (300°)10.4 mph20.7 mphClear
11:54 AM68.0 °F42.1 °F39 %29.83 in10.0 miNW (310°)13.8 mph26.5 mphClear
12:54 PM71.1 °F42.1 °F35 %29.81 in10.0 miWest (260°)6.9 mph16.1 mphClear
1:54 PM73.9 °F39.9 °F29 %29.78 in10.0 miWest (280°)9.2 mphClear
2:54 PM75.0 °F37.9 °F26 %29.76 in10.0 miWest (280°)13.8 mph24.2 mphClear
3:54 PM75.9 °F37.9 °F25 %29.74 in10.0 miWNW (300°)11.5 mph31.1 mphClear
4:54 PM77.0 °F37.0 °F24 %29.73 in10.0 miWest (260°)10.4 mph19.6 mphClear
5:54 PM75.0 °F37.9 °F26 %29.73 in10.0 miWNW (290°)16.1 mph23.0 mphClear
6:54 PM72.0 °F39.9 °F31 %29.75 in10.0 miWest (280°)8.1 mph21.9 mphClear
7:54 PM70.0 °F39.9 °F33 %29.78 in10.0 miWest (280°)9.2 mph20.7 mphScattered Clouds
8:54 PM69.1 °F41.0 °F36 %29.82 in10.0 miWest (270°)9.2 mph16.1 mphMostly Cloudy
9:54 PM66.9 °F42.1 °F40 %29.84 in10.0 miWest (280°)6.9 mph17.3 mphPartly Cloudy
10:54 PM64.9 °F41.0 °F42 %29.86 in10.0 miWSW (250°)4.6 mphClear
11:54 PM64.0 °F41.0 °F43 %29.86 in10.0 miWNW (290°)5.8 mphClear
Hourly data recorded from KAVL, located miles away from Asheville, North Carolina







STORIES FROM OUR PARTNERS